Regional Weather Roundup
Issued by NWS Upton, NY

Current Version | Previous Version | Text Only | Print | Product List | Glossary On
Versions: 1 2 3 4 5 6 7 8 9 10 11 12 13 14 15 16 17 18 19 20 21 22 23 24 25 26 27
000 ASUS41 KOKX 282105 RWROKX REGIONAL WEATHER ROUNDUP NATIONAL WEATHER SERVICE NEW YORK NY 500 PM EDT THU JUL 28 2016 NOTE: "FAIR" INDICATES FEW OR NO CLOUDS BELOW 12,000 FEET WITH NO SIGNIFICANT WEATHER AND/OR OBSTRUCTIONS TO VISIBILITY. NYZ071-072-176-178-NJZ106-104-282200- NEW YORK CITY METRO AREA CITY SKY/WX TMP DP RH WIND PRES REMARKS Central Park CLOUDY 84 70 62 VRB5 29.88S LaGuardia APRT CLOUDY 87 69 54 S15G23 29.84F HX 91 Kennedy INTL CLOUDY 83 75 77 S16 29.86F HX 90 Newark/Liberty CLOUDY 86 69 56 S10 29.85R HX 90 Bronx Bot Gard N/A 84 68 58 S3 29.85F Wall St Helipt CLOUDY 84 72 65 S9 29.86F Teterboro CLOUDY 88 66 48 S15 29.83R HX 90 $$ NYZ177-179-078>081-282200- LONG ISLAND NEW YORK CITY SKY/WX TMP DP RH WIND PRES REMARKS Farmingdale CLOUDY 84 74 71 SW13 29.87S HX 91 MacArthur/ISP PTSUNNY 83 74 74 S9 29.86F Shirley PTSUNNY 83 75 77 S12 29.87F HX 90 Riverhead NOT AVBL Westhampton PTSUNNY 81 74 79 S9G20 29.89F Southhampton N/A 81 77 89 SW6 29.83F Bridgehampton N/A 90 75 62 S7 29.87S HX 100 East Hampton CLOUDY 80 74 82 SW12 29.87F Montauk N/A 81 75 82 S7 29.88F $$ NYZ052-065-067-282200- HUDSON VALLEY CITY SKY/WX TMP DP RH WIND PRES REMARKS White Plains MOSUNNY 86 66 51 S8 29.86R Newburgh MOSUNNY 90 63 40 VRB5 29.86S HX 90 Montgomery CLOUDY 89 66 46 CALM 29.84S HX 91 Poughkeepsie PTSUNNY 93 56 28 SW5 29.82S HX 91 Albany CLOUDY 88 61 40 W9 29.84S $$ NJZ001-105-106-008-010-013-015-019>022-104-282200- NEW JERSEY CITY SKY/WX TMP DP RH WIND PRES REMARKS Newark/Liberty CLOUDY 86 69 56 S10 29.85R HX 90 Teterboro CLOUDY 88 66 48 S15 29.83R HX 90 Caldwell PTSUNNY 89 66 46 S12G18 29.84R HX 91 Morristown PTSUNNY 88 66 48 SW5 29.85R HX 90 Somerville CLOUDY 84 69 60 S10 29.85R Linden FAIR 85 65 51 S14 29.87S Sussex PTSUNNY 88 64 44 S5 29.85S Abdover N/A 86 63 45 VRB3 29.86S Trenton LGT RAIN 76 72 87 S12 29.90R Millville TSTM 75 72 90 N12 29.88R Atlantic City RAIN 79 73 82 VRB3G20 29.88R Wrightstown NOT AVBL Toms River RAIN 80 78 94 SE3 29.91R FOG Belmar LGT RAIN 79 77 94 S5 29.91R $$ PAZ047>061-062-071-282200- EASTERN PENNSYLVANIA CITY SKY/WX TMP DP RH WIND PRES REMARKS Philadelphia LGT RAIN 75 72 90 S10 29.91R Allentown TSTM 76 71 85 CALM 29.91R Scranton CLOUDY 88 64 44 SW6 29.86S $$ CTZ002-004>006-009-010-012-RIZ004-006-007-MAZ004-011-015-282200- SOUTHERN NEW ENGLAND IN CT CITY SKY/WX TMP DP RH WIND PRES REMARKS Bradley INTL CLOUDY 92 60 34 N6 29.83S HX 91 Hartford MOSUNNY 94 65 38 S9 29.81S HX 96 Danbury SUNNY 88 64 44 S14 29.86S Wtrbury/Oxford PTSUNNY 90 63 40 S9 29.90S HX 90 Bridgeport SUNNY 87 66 49 S10 29.84F Meriden MOSUNNY 93 61 34 S14 29.83S HX 93 New Haven MOSUNNY 87 69 54 S13 29.85F HX 91 Chester FAIR 88 68 51 S9G16 29.87S HX 91 Groton SUNNY 79 73 82 S12 29.85S Wilimantic MOSUNNY 89 67 47 S12 29.84F HX 92 IN RI CITY SKY/WX TMP DP RH WIND PRES REMARKS Providence PTSUNNY 86 67 52 S15 29.86S Block Island CLOUDY 80 75 84 SW12 29.89R Westerly MOSUNNY 81 72 74 S10 29.88S IN MA CITY SKY/WX TMP DP RH WIND PRES REMARKS Boston CLOUDY 87 63 44 S7 29.82S Worchester MOSUNNY 86 58 38 VRB7 29.89S Westfield MOSUNNY 93 57 29 CALM 29.83S HX 91 Provincetown MOSUNNY 81 71 71 S12 29.86S Nantucket SUNNY 75 71 87 S10 29.89S $$ ANZ330-335-338-340-345-350-353-355-282200- COASTAL MARINE OBSERVATIONS STATION/POSITION TIME SKY/WX TEMP WIND PRES VSBY WAVE AIR SEA DIR/SP/G HT/PER (UTC) (F) (DEG/KT/KT) (MB) (MI) (FT/S) NY HARB ENTRANCE 1950 79 79 170/ 12/ 14 1011.3 1/ 8 20S FIRE ISLAND 1950 78 78 180/ 8/ 10 1011.5 1/ 6 GREAT SOUTH BAY 2000 78 83 220/ 12/ 16 N/A 23 SSW MONTAUK P 1950 77 75 200/ 6/ 8 1012.1 1/ 6 15 E BARNEGAT LI 2000 80 N/A 1/ 6 HUDSON CANYON 1950 80 81 1012.0 1/ 6 KINGS POINT 2000 82 75 1010.7 EXECUTION ROCKS 2000 86 170/ 10/ 16 N/A CENTRAL LI SOUND 2015 82 78 180/ 10/ 12 N/A 1 EASTERN LI SOUND 2000 74 72 180/ 10/ 12 N/A ROBBINS REEF 2000 76 160/ 18/ 19 1010.4 $$ >>>>>>>>>>>>>>>>>>>>>>>>>>>> KEY <<<<<<<<<<<<<<<<<<<<<<<<<<< > < > SKY/WX - Sky Condition/Present Weather < > TMP - Temperature in Fahrenheit < > DP - Dew Point in Fahrenheit < > RH - Relative Humidity in Percent < > WIND - Direction (from) and Speed in MPH < > PRES - Mean Sea Level Pressure (inches of Hg) < > WCI - Wind Chill Index < > VSB - VISIBILITY IN MILES < > HX - HEAT INDEX < > TC - TEMPERATURE IN CELSIUS < > VRB - VARIABLE WIND DIRECTION < > < >>>>>>>>>>>>>>>>>>>>>>>>>>>> KEY <<<<<<<<<<<<<<<<<<<<<<<<<<<

USA.gov is the U.S. government's official web portal to all federal, state and local government web resources and services.